Regional Weather Roundup
Issued by NWS

Home | Current Version | Previous Version | Graphics & Text | Print | Product List | Glossary On
Versions: 1 2 3 4 5 6 7 8 9 10 11 12 13 14 15 16 17 18 19 20 21 22 23 24 25 26 27 28 29 30 31 32 33 34 35 36 37 38 39 40 41 42 43 44 45 46 47 48 49 50
000
ASUS45 KABQ 182101
RWRNM
WEATHER ROUNDUP FOR NEW MEXICO
NATIONAL WEATHER SERVICE ALBUQUERQUE NM
300 PM MDT FRI APR 18 2014

NOTE: "FAIR" MEANS FEW OR NO CLOUDS BELOW 12,000 FEET AGL WITH NO
       SIGNIFICANT WEATHER OR OBSTRUCTIONS TO VISION.

      THIS PRODUCT IS RELEASED AS TWO VERSIONS.  ONE VERSION NEAR
      THE TOP OF THE HOUR CONTAINING PRELIMINARY DATA FROM ALBUQUERQUE
      AND OTHER STATIONS.  A FINAL VERSION WITH ADDITIONAL DATA IS
      ISSUED ABOUT 10 MINUTES AFTER THE HOUR.

NMZ501-503-504-510>518-182200-
NORTHWEST PLATEAU/NORTHCENTRAL MOUNTAINS

CITY           SKY/WX    TMP DP  RH WIND       PRES   REMARKS
FARMINGTON     SUNNY     76  16  10 SW8       29.99F
LOS ALAMOS     PTSUNNY   66  20  17 S13G21    30.15F
SANTA FE       PTSUNNY   71  22  15 SW12      30.10F
TAOS           PTSUNNY   70  21  16 SW10G21   30.15F
ANGEL FIRE     FAIR      63  22  21 W13G24    30.20F

$$
NMZ402-403-502-505>509-182200-
WESTCENTRAL MOUNTAINS/SOUTHWEST MOUNTAINS

CITY           SKY/WX    TMP DP  RH WIND       PRES   REMARKS
GALLUP         CLOUDY    71  18  13 S14       30.07F
SILVER CITY    CLOUDY    72  27  18 S14G20    30.12F

$$
NMZ407-409-411-412-182200-
SOUTHERN DESERTS

CITY           SKY/WX    TMP DP  RH WIND       PRES   REMARKS
DEMING         CLOUDY    80  24  12 S15G21    30.03F
LAS CRUCES     PTSUNNY   78  31  18 S13       30.06F
HOLLOMAN AFB   CLOUDY    79  34  20 S14G22    30.04F
T OR C         PTSUNNY   76  28  17 S13G20    30.05F

$$
NMZ519>523-182200-
CENTRAL VALLEYS/CENTRAL HIGHLANDS

CITY           SKY/WX    TMP DP  RH WIND       PRES   REMARKS
ALBUQUERQUE    CLOUDY    74  24  15 S8        30.06F
DOUBLE EAGLE   PTSUNNY   72  27  18 S12       30.09F
CLINES CORNERS MOSUNNY   70  17  13 SW23      30.13F
BELEN          FAIR      77  25  14 S20G28    30.05F
SOCORRO        NOT AVBL

$$
NMZ524>526-539-540-182200-
SOUTHCENTRAL MOUNTAINS

CITY           SKY/WX    TMP DP  RH WIND       PRES   REMARKS
RUIDOSO        NOT AVBL

$$
NMZ527>531-182200-
NORTHEAST HIGHLANDS/NORTHEAST PLAINS

CITY           SKY/WX    TMP DP  RH WIND       PRES   REMARKS
LAS VEGAS      PTSUNNY   71  18  13 SW18G30   30.11F
RATON          SUNNY     72  28  19 SW8G18    30.05F
CLAYTON        SUNNY     73  36  25 S24       30.04F

$$
NMZ532>537-182200-
EASTCENTRAL PLAINS

CITY           SKY/WX    TMP DP  RH WIND       PRES   REMARKS
TUCUMCARI      SUNNY     76  42  29 S22G31    30.04F
CANNON AFB     MOSUNNY   69  45  41 S17G24    30.12F
CLOVIS AIRPORT SUNNY     68  46  45 S17       30.16F

$$
NMZ028-029-538-182200-
SOUTHEAST PLAINS

CITY           SKY/WX    TMP DP  RH WIND       PRES   REMARKS
ROSWELL        CLOUDY    70  48  45 S20       30.09F
CARLSBAD       CLOUDY    73  48  41 SE16G22   30.08F
HOBBS          MOSUNNY   68  46  45 SE16G24   30.14F


$$



USA.gov is the U.S. government's official web portal to all federal, state and local government web resources and services.